Starlink 30350

operational
NORAD ID: 57746 Int'l Des: 2023-131 Owner: SPXS Country: US Constellation: starlink
LEOCIRCULAR

Starlink 30350について

説明を読み込み中...

リアルタイム位置

3D地球を読み込み中...

次回通過

高度履歴

Altitude vs Time

uPlot chart will show altitude changes over time

軌道要素

1 57746U 23131Q 25352.14042577 -.00000542 00000-0 -25031-4 0 9994
2 57746 43.0027 255.1835 0000999 273.8787 86.1941 15.02538718127655
Epoch: Dec 18, 2025 • Age: 18 hours

現在のステータス

高度 558.3 km
速度 7.58 km/s
衛星直下点 6.40°N, 144.08°W
打ち上げ日 Sep 1, 2023
運用期間 2.2 years
タイプ internet

技術仕様

分類 Payload
質量 730.00 kg
乾燥質量 700.00 kg
総質量 730.00 kg
長さ 0.30 m
直径 4.10 m
スパン 29.00 m
形状 Box + pan
製造者 SPXS
バスタイプ Starlink V2M
フェーズステータス In Orbit
所有者/国 SPXS/US

大規模コンステレーション

Loading constellations...